CW9927 Weather Reports


time (UTC)temp
C
wind
direction
speed
KPH
gust
KPH
rain 1hr
cm
rain 24hr
cm
rain mn
cm
humidity
%
barometer
mb
20260906154337 15 0.0 0.0 0.00 0.00 0.00 79 1016.5
20260906153317 14 0.0 0.0 0.00 0.00 0.00 83 1016.5
20260906152317 13 0.0 0.0 0.00 0.00 0.00 84 1016.5
20260906151317 12 0.0 0.0 0.00 0.00 0.00 88 1016.4
20260906150317 12 0.0 0.0 0.00 0.00 0.00 90 1016.5
20260906145317 11 0.0 0.0 0.00 0.00 0.00 90 1016.4
20260906144317 10 0.0 0.0 0.00 0.00 0.00 90 1016.3
20260906143317 9 0.0 0.0 0.00 0.00 0.00 88 1016.2
20260906142337 9 0.0 0.0 0.00 0.00 0.00 87 1016.1
20260906141317 9 0.0 0.0 0.00 0.00 0.00 87 1016.0
20260906140317 8 0.0 0.0 0.00 0.00 0.00 87 1015.9
20260906135317 8 0.0 0.0 0.00 0.00 0.00 86 1015.7
20260906134317 9 0.0 0.0 0.00 0.00 0.00 86 1015.6
20260906133317 9 0.0 0.0 0.00 0.00 0.00 86 1015.6
20260906132317 9 0.0 0.0 0.00 0.00 0.00 86 1015.4
20260906131317 9 0.0 0.0 0.00 0.00 0.00 85 1015.4
20260906130344 10 0.0 0.0 0.00 0.00 0.00 85 1015.3
20260906130240 10 0.0 0.0 0.00 0.00 0.00 85 1015.3
20260906125116 10 0.0 0.0 0.00 0.00 0.00 85 1015.3
20260906124116 10 0.0 0.0 0.00 0.00 0.00 85 1015.1
20260906123116 10 0.0 0.0 0.00 0.00 0.00 84 1015.1
20260906122116 10 0.0 0.0 0.00 0.00 0.00 84 1015.1
20260906121116 10 0.0 0.0 0.00 0.00 0.00 83 1015.1
20260906120116 10 0.0 0.0 0.00 0.00 0.00 82 1015.2
20260906115116 10 0.0 0.0 0.00 0.00 0.00 82 1015.1
20260906114116 10 0.0 0.0 0.00 0.00 0.00 82 1015.2
20260906113136 10 0.0 0.0 0.00 0.00 0.00 82 1015.1
20260906111116 11 0.0 0.0 0.00 0.00 0.00 83 1015.2
20260906110138 11 0.0 0.0 0.00 0.00 0.00 83 1015.1
20260906105116 11 0.0 0.0 0.00 0.00 0.00 81 1015.3
20260906104116 11 0.0 0.0 0.00 0.00 0.00 81 1015.2
20260906103116 11 0.0 0.0 0.00 0.00 0.00 80 1015.3
20260906102116 11 0.0 0.0 0.00 0.00 0.00 81 1015.2
20260906101116 12 0.0 0.0 0.00 0.00 0.00 81 1015.2
20260906100116 12 0.0 0.0 0.00 0.00 0.00 81 1015.2
20260906095118 11 0.0 0.0 0.00 0.00 0.00 79 1015.2
20260906094116 12 0.0 0.0 0.00 0.00 0.00 79 1015.3
20260906093116 12 0.0 0.0 0.00 0.00 0.00 78 1015.3
20260906092116 12 0.0 0.0 0.00 0.00 0.00 78 1015.2
20260906091136 12 0.0 0.0 0.00 0.00 0.00 78 1015.3
20260906090116 13 0.0 0.0 0.00 0.00 0.00 78 1015.3
20260906085116 13 0.0 0.0 0.00 0.00 0.00 76 1015.3
20260906084116 13 0.0 0.0 0.00 0.00 0.00 76 1015.3
20260906083136 13 0.0 0.0 0.00 0.00 0.00 75 1015.4
20260906082116 14 0.0 0.0 0.00 0.00 0.00 74 1015.4
20260906081116 14 0.0 0.0 0.00 0.00 0.00 74 1015.5
20260906080116 15 0.0 0.0 0.00 0.00 0.00 74 1015.4
20260906075116 15 0.0 0.0 0.00 0.00 0.00 74 1015.4
20260906074116 15 0.0 0.0 0.00 0.00 0.00 74 1015.5
20260906073116 15 0.0 0.0 0.00 0.00 0.00 73 1015.4
20260906072116 15 0.0 0.0 0.00 0.00 0.00 73 1015.3
20260906071116 16 0.0 0.0 0.00 0.00 0.00 72 1015.2
20260906065116 16 0.0 0.0 0.00 0.00 0.00 70 1015.2
20260906064116 16 0.0 0.0 0.00 0.00 0.00 69 1015.2
20260906063116 16 0.0 0.0 0.00 0.00 0.00 69 1015.0
20260906062116 16 0.0 0.0 0.00 0.00 0.00 68 1014.9
20260906061116 16 0.0 0.0 0.00 0.00 0.00 68 1014.9
20260906060116 17 0.0 0.0 0.00 0.00 0.00 68 1014.9
20260906055116 17 0.0 0.0 0.00 0.00 0.00 67 1014.9
20260906054117 17 0.0 0.0 0.00 0.00 0.00 66 1014.8
20260906053116 17 0.0 0.0 0.00 0.00 0.00 66 1014.8
20260906052116 17 0.0 0.0 0.00 0.00 0.00 65 1014.8
20260906051116 17 0.0 0.0 0.00 0.00 0.00 64 1014.9
20260906050137 17 0.0 0.0 0.00 0.00 0.00 62 1014.9
20260906045116 17 0.0 0.0 0.00 0.00 0.00 61 1014.8
20260906044116 18 0.0 0.0 0.00 0.00 0.00 60 1014.9
20260906043116 18 0.0 0.0 0.00 0.00 0.00 59 1014.7
20260906042116 18 0.0 1.6 0.00 0.00 0.00 59 1014.6
20260906041117 18 0.0 0.0 0.00 0.00 0.00 58 1014.5
20260906040116 18 0.0 0.0 0.00 0.00 0.00 58 1014.3
20260906035116 19 0.0 0.0 0.00 0.00 0.00 58 1014.3
20260906034137 19 0.0 0.0 0.00 0.00 0.00 57 1014.2
20260906033116 19 0.0 0.0 0.00 0.00 0.00 56 1014.0
20260906032116 20 0.0 0.0 0.00 0.00 0.00 56 1014.0
20260906031116 20 0.0 0.0 0.00 0.00 0.00 55 1013.9
20260906030116 20 0.0 0.0 0.00 0.00 0.00 54 1013.8
20260906025136 20 0.0 0.0 0.00 0.00 0.00 54 1013.7
20260906024116 20 0.0 0.0 0.00 0.00 0.00 53 1013.5
20260906023116 21 0.0 0.0 0.00 0.00 0.00 52 1013.5
20260906022137 21 0.0 0.0 0.00 0.00 0.00 51 1013.4
20260906021157 22 0.0 0.0 0.00 0.00 0.00 49 1013.3
20260906020116 22 0.0 0.0 0.00 0.00 0.00 48 1013.3
20260906015116 23 0.0 0.0 0.00 0.00 0.00 46 1013.2
20260906014116 23 0.0 0.0 0.00 0.00 0.00 43 1013.2
20260906013136 23 0.0 0.0 0.00 0.00 0.00 40 1013.2
20260906012117 24 0.0 0.0 0.00 0.00 0.00 43 1013.1
20260906011116 25 0.0 1.6 0.00 0.00 0.00 42 1013.1
20260906005016 25 0.0 0.0 0.00 0.00 0.00 35 1013.0
20260906004036 26 225 6.4 11.3 0.00 0.00 0.00 34 1013.0
20260906003018 26 225 3.2 11.3 0.00 0.00 0.00 34 1012.9
20260906002036 26 0.0 3.2 0.00 0.00 0.00 34 1012.8
20260906001016 27 225 3.2 12.9 0.00 0.00 0.00 34 1012.8
20260906000016 27 225 1.6 9.7 0.00 0.00 0.00 36 1012.8
20260905235018 27 248 3.2 8.0 0.00 0.00 0.00 35 1012.8
20260905234016 27 0.0 1.6 0.00 0.00 0.00 36 1012.8
20260905233018 27 0.0 0.0 0.00 0.00 0.00 36 1012.8
20260905232056 27 270 4.8 11.3 0.00 0.00 0.00 36 1012.9
20260905231016 27 225 4.8 12.9 0.00 0.00 0.00 36 1013.0
20260905230137 27 248 1.6 8.0 0.00 0.00 0.00 36 1013.1
20260905225117 28 248 6.4 14.5 0.00 0.00 0.00 36 1013.3
20260905224119 28 248 3.2 12.9 0.00 0.00 0.00 37 1013.3
20260905223117 28 0.0 1.6 0.00 0.00 0.00 38 1013.3
20260905222138 28 225 6.4 12.9 0.00 0.00 0.00 37 1013.3
20260905221117 28 270 4.8 11.3 0.00 0.00 0.00 38 1013.4
20260905220117 28 270 6.4 14.5 0.00 0.00 0.00 37 1013.4
20260905215117 28 0.0 0.0 0.00 0.00 0.00 36 1013.6
20260905214117 28 0.0 0.0 0.00 0.00 0.00 37 1013.5
20260905213117 28 225 4.8 16.1 0.00 0.00 0.00 37 1013.6
20260905212117 28 0.0 0.0 0.00 0.00 0.00 38 1013.7
20260905211117 28 0.0 0.0 0.00 0.00 0.00 38 1013.7
20260905210118 28 0.0 0.0 0.00 0.00 0.00 38 1013.7
20260905205117 28 0.0 0.0 0.00 0.00 0.00 37 1013.8
20260905204119 28 0.0 0.0 0.00 0.00 0.00 38 1013.8
20260905203117 28 0.0 0.0 0.00 0.00 0.00 38 1013.8
20260905202117 28 0.0 0.0 0.00 0.00 0.00 38 1013.9
20260905201117 27 0.0 0.0 0.00 0.00 0.00 39 1014.1
20260905200117 27 0.0 0.0 0.00 0.00 0.00 40 1014.2
20260905195117 27 0.0 0.0 0.00 0.00 0.00 37 1014.2
20260905194119 26 0.0 0.0 0.00 0.00 0.00 37 1014.4
20260905193117 26 0.0 0.0 0.00 0.00 0.00 38 1014.4
20260905192117 25 0.0 0.0 0.00 0.00 0.00 37 1014.6
20260905191137 25 0.0 0.0 0.00 0.00 0.00 34 1014.7
20260905185116 24 0.0 0.0 0.00 0.00 0.00 36 1014.8
20260905184116 23 0.0 0.0 0.00 0.00 0.00 37 1014.9
20260905183116 23 0.0 0.0 0.00 0.00 0.00 37 1015.0
20260905182116 23 0.0 0.0 0.00 0.00 0.00 41 1015.2
20260905181116 22 0.0 0.0 0.00 0.00 0.00 40 1015.2
20260905180116 22 0.0 0.0 0.00 0.00 0.00 49 1015.2
20260905175116 21 0.0 0.0 0.00 0.00 0.00 53 1015.3
20260905174117 21 0.0 0.0 0.00 0.00 0.00 56 1015.3
20260905173116 20 0.0 0.0 0.00 0.00 0.00 57 1015.4
20260905172116 20 0.0 0.0 0.00 0.00 0.00 57 1015.5
20260905171116 19 0.0 0.0 0.00 0.00 0.00 60 1015.5
20260905170136 19 0.0 0.0 0.00 0.00 0.00 61 1015.5
20260905165116 19 0.0 0.0 0.00 0.00 0.00 60 1015.4
20260905164157 20 0.0 0.0 0.00 0.00 0.00 61 1015.3
20260905163116 19 0.0 0.0 0.00 0.00 0.00 62 1015.2
20260905162116 20 0.0 0.0 0.00 0.00 0.00 60 1015.4
20260905161116 19 0.0 0.0 0.00 0.00 0.00 63 1015.5
20260905160116 18 0.0 0.0 0.00 0.00 0.00 67 1015.5
20260905155116 18 0.0 0.0 0.00 0.00 0.00 67 1015.4